GFSFLT2_prec_cthk_054.txt.gz
RH
86 80 70 60 49 34 24 17 11 11 15 17 23 29 31 31 30 31 33 36 35 34 34 36 39 39 39 38 37 38 38 44
85 78 71 57 38 27 21 11 11 14 15 24 30 31 33 33 34 36 40 38 38 39 38 39 39 43 48 47 44 43 42 50
77 69 53 39 29 21 17 14 13 13 21 30 36 38 40 43 38 40 43 42 44 46 45 45 49 53 53 53 51 48 46 49
66 52 39 31 24 18 15 13 13 19 27 39 46 51 52 44 49 54 59 58 61 64 61 61 63 61 58 58 54 48 47 49
57 42 34 36 29 22 17 20 23 28 32 44 56 45 57 64 74 85 74 77 76 71 72 74 68 62 57 50 45 47 49 50
37 32 30 31 26 29 26 26 29 36 43 52 57 60 65 71 78 77 80 79 81 81 76 72 67 63 58 54 50 49 51 51
30 26 25 23 30 30 32 36 37 51 56 55 56 65 74 87 79 74 78 75 77 77 70 70 65 59 56 55 52 53 51 52
32 24 26 33 34 35 42 43 47 54 60 60 62 71 70 76 79 77 81 81 80 73 63 56 54 53 54 55 54 53 53 51
30 35 42 51 52 51 55 62 65 68 68 67 63 70 73 74 79 79 82 72 64 57 52 51 50 50 49 46 44 44 42 39
50 50 52 55 59 64 74 74 75 77 73 68 69 73 70 73 73 70 66 61 56 54 52 49 46 44 43 39 38 34 30 26
55 59 67 72 74 75 76 81 70 65 63 66 66 65 66 64 62 62 57 56 56 54 50 44 41 37 33 31 30 27 28 27
59 63 75 71 70 72 75 71 66 65 62 62 61 62 59 59 55 58 59 58 56 53 48 42 37 34 33 32 32 32 30 31
58 68 64 70 75 76 65 51 53 53 55 58 56 54 58 58 59 62 61 61 56 51 49 45 41 39 37 35 33 31 35 33
62 65 68 71 70 60 52 53 53 53 54 52 57 57 61 65 65 63 59 57 54 51 46 42 41 41 38 36 36 33 31 32
66 63 66 62 66 59 55 54 54 54 54 55 60 65 66 63 61 60 55 51 48 47 46 47 44 40 41 41 38 38 36 35
62 61 59 63 61 56 57 56 56 60 64 69 67 67 65 65 62 55 52 50 48 48 48 47 45 44 44 44 42 43 45 43
61 58 61 58 58 57 56 61 64 65 68 67 70 68 67 61 58 55 51 50 50 51 56 55 51 48 52 53 50 49 52 57
55 58 56 55 52 55 59 61 63 63 63 62 65 69 71 63 58 58 54 53 51 50 53 49 45 44 57 62 61 62 65 67
53 53 52 50 52 55 58 60 63 62 63 66 70 76 65 63 58 55 54 52 48 47 50 54 52 40 55 63 67 66 71 73
51 51 50 52 55 56 57 60 61 64 67 66 71 63 59 57 56 54 52 49 47 46 46 50 50 51 56 70 68 70 73 71

GFSFLT2_prec_cthk_057.txt.gz
RH
96 95 89 75 64 48 34 21 11 11 10 14 20 24 26 28 28 28 29 32 34 33 33 38 39 41 43 43 43 45 45 46
93 91 81 67 55 44 36 22 17 11 12 22 24 27 28 28 28 28 31 35 36 35 41 46 50 54 53 51 49 47 49 48
91 83 74 57 47 40 28 16 16 15 18 24 27 30 33 34 32 36 43 47 51 51 56 57 60 60 59 59 54 50 48 48
84 72 56 46 38 28 20 17 12 15 25 29 29 35 38 39 46 55 64 70 70 69 68 69 67 66 64 60 55 49 47 49
71 57 44 31 22 19 17 16 17 21 27 36 43 47 46 53 62 65 73 79 74 76 72 68 70 70 62 56 53 49 47 48
55 40 35 30 24 22 22 21 22 29 34 45 52 52 60 61 67 72 78 75 72 70 71 72 73 68 60 59 56 55 52 53
43 35 30 29 25 23 27 29 33 38 42 47 58 63 62 68 77 79 76 74 74 73 74 74 66 56 56 54 51 48 48 47
26 25 25 25 29 35 37 44 50 56 61 64 67 64 60 72 74 72 74 76 78 72 63 54 48 48 47 46 45 47 46 43
26 25 33 39 42 45 55 62 64 65 68 69 63 56 60 64 70 70 68 61 55 54 50 45 43 42 42 39 36 35 34 31
33 41 42 49 57 64 67 68 67 65 62 57 58 55 58 57 54 51 51 49 47 48 47 46 44 42 39 35 32 31 29 28
45 50 52 68 67 62 63 67 71 62 55 52 52 49 51 52 54 54 52 49 46 46 47 47 44 40 37 34 31 31 29 29
54 58 61 66 60 62 69 67 63 54 52 51 51 53 50 52 53 53 52 51 51 49 46 43 41 37 35 34 35 34 33 35
52 58 70 64 65 66 65 60 50 51 52 50 51 54 54 52 50 51 52 52 49 44 42 37 35 35 35 35 34 33 32 33
56 67 67 66 62 65 54 48 49 49 48 48 51 49 49 51 54 55 52 52 48 43 39 38 38 41 40 36 34 33 33 33
56 55 59 58 60 54 49 50 48 45 47 47 49 52 54 58 57 56 55 53 48 43 41 41 43 43 42 40 38 38 36 34
54 58 58 57 53 55 50 46 45 47 50 52 55 54 57 58 59 61 59 55 56 54 46 45 45 45 44 44 41 42 43 42
52 51 48 53 53 51 49 47 49 50 53 57 58 60 58 61 62 62 58 53 50 47 45 46 48 46 47 45 43 40 46 50
50 49 53 53 53 51 50 52 55 58 62 64 64 64 64 63 62 57 54 51 50 49 46 46 45 45 45 46 46 47 51 58
49 50 51 53 50 48 50 54 58 61 64 65 65 68 69 73 61 54 53 52 50 45 47 47 48 50 46 44 47 49 59 64
48 49 50 49 48 50 54 58 62 66 66 64 70 76 76 66 52 52 51 48 48 45 44 41 41 43 47 50 51 50 57 64

GFSFLT2_prec_cthk_063.txt.gz
RH
98 95 95 94 85 79 68 49 39 30 21 31 25 24 22 22 23 24 24 26 28 37 46 51 53 52 55 56 54 52 49 46
98 96 92 90 81 76 52 44 40 39 37 29 26 24 24 24 27 30 30 35 40 45 53 60 63 60 60 61 59 57 53 52
98 94 88 87 78 53 42 38 31 25 22 23 28 29 29 32 34 37 41 44 50 56 63 69 64 64 64 62 60 57 54 52
94 97 90 79 61 58 54 44 35 28 27 27 32 33 35 39 45 49 53 58 59 64 66 69 70 67 70 61 53 53 51 47
94 90 78 70 60 48 37 28 25 24 25 32 31 33 42 49 54 59 60 62 64 68 66 71 69 70 63 58 52 47 46 46
90 85 68 60 50 43 35 30 26 22 22 27 37 40 46 60 63 65 66 64 67 65 64 66 64 58 55 53 47 42 41 40
69 58 53 39 28 21 19 22 24 27 33 41 50 53 60 61 63 63 62 62 61 61 63 64 56 49 44 39 37 36 38 38
62 42 32 25 25 26 28 33 38 46 49 60 60 58 59 60 58 58 57 60 62 61 57 46 43 41 40 37 36 34 33 29
44 37 38 36 40 43 46 45 51 54 57 56 61 60 53 54 53 55 58 59 53 46 45 44 43 41 39 38 35 32 28 26
45 45 44 46 50 50 53 58 57 58 62 60 56 52 49 52 51 52 49 46 45 46 47 46 43 41 39 37 34 31 30 29
49 50 45 52 60 64 62 62 65 63 59 56 51 47 49 50 47 46 46 47 48 48 47 45 43 40 35 34 33 34 36 34
45 47 47 56 66 68 64 65 64 62 59 55 51 48 46 47 46 44 45 47 47 46 46 45 41 38 38 39 40 41 39 36
46 44 51 62 68 65 61 62 63 59 60 56 51 47 47 45 45 45 45 46 48 47 47 44 41 41 42 42 40 40 41 40
53 53 61 62 60 60 58 62 62 63 58 52 48 45 45 42 42 45 46 46 46 47 47 47 46 45 43 41 42 44 43 44
52 55 61 61 63 64 68 63 64 61 52 47 45 45 42 46 50 47 46 46 49 53 57 55 53 51 46 48 47 45 43 44
52 55 64 71 65 71 68 64 60 50 47 44 43 45 50 52 50 50 51 55 61 67 66 58 53 49 47 48 47 47 49 49
59 68 71 65 63 68 66 60 47 44 44 44 48 53 52 51 52 58 54 53 65 68 64 62 52 46 49 46 46 49 53 53
71 73 63 62 64 67 58 53 47 46 46 49 52 52 57 64 63 71 75 77 67 63 63 58 45 46 45 47 50 51 51 54
66 66 59 59 62 55 57 55 49 49 50 52 56 56 68 84 63 82 90 82 66 57 55 43 44 46 48 51 53 55 58 56
58 54 50 54 53 58 56 51 51 54 56 60 73 74 84 84 78 72 66 64 60 57 52 44 46 51 57 60 58 58 58 59

GFSFLT2_prec_cthk_066.txt.gz
RH
95 92 93 94 88 84 76 70 51 39 34 36 30 32 33 28 22 24 27 27 30 34 40 47 51 55 55 57 56 53 51 49
94 97 99 94 89 83 73 56 45 43 40 34 46 37 27 26 29 28 33 36 37 44 46 53 57 57 57 59 57 53 45 42
95 98 96 91 86 76 62 49 43 43 40 45 33 33 31 29 31 37 38 43 49 51 56 59 60 59 62 60 56 54 47 40
94 99 95 90 79 62 51 46 43 42 39 35 35 33 34 34 37 43 51 56 61 60 61 65 60 58 59 57 51 46 41 39
98 92 95 87 69 60 57 49 39 33 34 36 39 36 33 42 50 59 62 63 63 60 61 62 59 58 55 50 47 44 41 40
93 87 82 79 67 52 44 41 36 33 28 30 32 35 42 51 62 62 63 61 58 58 58 58 60 57 49 46 43 39 35 35
88 81 70 62 53 43 37 32 28 27 30 34 39 48 56 60 61 60 59 59 58 57 60 62 57 45 38 36 35 33 32 29
71 70 63 55 38 32 28 30 39 44 48 57 60 62 61 57 57 56 55 56 58 60 60 50 43 38 36 35 35 34 31 29
48 48 43 43 34 37 43 49 51 56 61 58 59 62 58 55 53 51 54 55 54 50 45 43 43 40 38 36 34 32 30 29
46 48 47 40 41 47 51 53 58 60 59 61 56 53 51 49 48 53 54 51 44 45 45 43 42 42 40 38 35 33 33 32
54 55 52 50 56 58 60 61 67 67 66 59 54 51 52 51 52 49 44 46 46 45 44 46 46 44 41 38 35 35 33 33
58 59 56 55 60 67 68 66 66 65 63 59 54 52 52 50 47 45 45 47 47 47 49 48 44 42 39 39 38 37 33 34
48 50 54 59 64 66 66 63 63 64 59 59 56 56 50 48 47 45 45 47 47 48 46 44 43 42 43 46 44 41 35 37
47 49 54 56 59 62 62 63 66 64 63 61 58 53 48 49 45 46 48 46 46 48 49 50 50 51 52 51 48 42 38 42
50 51 51 55 57 63 72 76 71 67 64 59 55 49 47 44 46 47 46 48 51 49 51 56 59 55 56 53 49 45 45 48
49 51 54 62 69 69 78 83 79 67 59 55 49 45 43 46 50 49 51 56 59 65 64 69 67 58 51 48 47 47 49 48
56 57 61 68 75 72 78 82 79 60 51 48 45 44 47 51 54 59 63 63 70 76 71 59 56 52 48 46 46 46 51 56
62 62 75 72 71 73 82 82 66 51 49 46 46 47 58 65 70 76 79 77 83 80 72 55 47 45 44 46 49 58 61 62
69 69 71 77 67 64 73 68 56 59 52 48 49 57 70 74 77 83 85 92 88 71 62 55 47 46 48 54 64 63 59 55
69 62 57 54 55 65 65 55 62 70 58 57 61 68 74 80 85 97 96 86 74 63 59 51 49 54 62 68 65 59 56 49

GFSFLT2_prec_cthk_069.txt.gz
RH
91 97 95 94 84 73 68 62 59 60 45 46 43 36 32 31 34 31 28 30 30 36 40 45 50 54 52 54 54 49 46 44
96 97 99 96 92 76 72 69 68 52 42 39 38 35 40 40 35 31 32 31 38 43 48 52 55 57 56 52 52 47 42 39
98 98 97 98 94 86 79 74 55 49 48 45 44 47 42 32 35 36 35 40 46 52 54 55 57 56 55 51 47 44 41 37
87 92 94 90 92 87 78 63 53 45 42 49 46 39 38 42 39 40 46 51 57 61 57 56 54 53 53 52 45 41 39 39
89 90 84 84 80 73 63 56 53 53 52 42 41 44 42 39 41 49 62 65 64 61 52 54 54 54 53 45 43 38 37 34
95 94 93 87 82 68 59 58 47 40 36 40 43 40 40 43 52 63 69 65 58 56 54 54 54 56 48 40 34 33 33 30
95 92 89 83 74 68 56 43 37 37 35 35 36 40 45 54 63 68 68 60 56 55 55 55 52 42 37 36 34 33 31 28
94 89 81 71 62 51 41 37 34 34 39 45 52 55 63 68 66 61 56 54 54 53 52 44 38 36 36 35 34 33 31 30
71 70 64 64 53 39 36 39 46 52 55 62 70 70 75 71 56 52 52 51 52 50 40 39 37 36 35 34 34 33 31 30
52 49 49 54 46 41 44 50 58 67 65 64 63 65 58 53 50 50 52 51 45 40 41 40 39 39 37 34 33 33 31 30
56 56 53 49 46 46 53 60 64 69 71 73 61 58 53 51 51 52 50 44 42 44 44 43 42 38 34 33 34 33 33 35
62 64 62 56 51 59 63 61 68 71 74 71 61 57 53 51 52 49 43 43 43 44 44 43 42 39 38 37 37 39 39 40
62 63 63 59 59 63 65 68 69 72 78 66 60 55 54 53 47 44 44 44 45 45 45 44 44 44 44 48 46 45 41 39
52 55 59 61 57 59 63 62 64 70 69 61 59 55 51 47 45 44 44 46 45 48 51 50 55 57 62 57 48 44 42 42
47 48 50 56 58 57 62 66 76 78 74 67 59 51 48 45 44 45 48 49 50 54 57 57 61 60 61 54 47 44 44 45
47 51 53 54 57 61 63 75 83 89 83 68 56 51 47 45 44 52 58 60 59 68 70 67 69 64 58 50 43 42 46 47
52 55 57 59 66 74 71 78 91 93 88 67 55 53 47 46 51 60 68 72 72 81 78 75 74 64 51 45 44 44 47 56
59 66 63 68 78 75 74 78 93 93 78 59 62 58 51 51 61 72 73 75 77 86 84 77 68 54 46 48 48 56 63 63
61 70 68 72 80 82 69 68 86 88 65 58 69 61 56 66 75 78 78 78 90 90 85 73 62 48 50 53 60 63 59 53
67 74 74 74 62 54 56 67 80 78 59 67 58 59 68 75 79 81 85 87 92 76 62 56 56 54 61 67 65 59 52 46

GFSFLT2_prec_cthk_072.txt.gz
RH
85 87 92 92 91 76 67 55 51 51 53 44 50 44 38 37 35 33 34 32 34 37 39 47 50 51 53 53 48 42 47 45
90 93 98 99 87 74 62 56 57 57 59 54 46 38 39 38 36 36 36 36 37 40 50 53 54 56 57 52 44 39 39 42
94 98 99 95 88 76 69 64 62 65 62 51 47 43 41 45 42 42 38 39 41 53 57 60 60 57 53 52 42 41 40 39
94 96 96 95 92 82 74 71 76 64 47 47 45 45 51 47 36 41 41 46 56 61 63 62 58 56 54 48 41 38 37 36
99 93 87 83 87 88 87 78 67 55 53 55 54 53 49 48 43 47 51 58 62 68 62 56 57 54 50 41 37 38 38 36
94 95 96 88 93 92 86 82 67 60 54 55 51 46 45 49 49 50 57 64 68 62 59 59 56 55 41 37 36 34 33 32
91 95 91 92 86 80 73 69 64 62 61 51 45 48 45 44 49 55 64 72 63 58 56 55 47 38 36 35 34 32 31 31
94 95 94 91 88 86 78 68 61 58 53 47 43 41 45 56 66 71 69 63 57 55 51 44 37 36 35 34 32 32 29 28
94 96 97 86 76 65 52 46 46 47 40 37 46 57 67 76 80 65 58 53 52 49 40 37 38 37 37 35 30 28 28 26
89 88 83 77 59 53 47 43 41 40 50 61 66 76 78 78 65 54 49 50 48 41 39 40 39 38 36 35 31 29 28 31
60 60 71 55 43 40 47 53 57 65 71 73 75 76 61 55 52 50 50 47 43 39 39 41 39 38 38 37 34 36 42 41
59 68 76 64 60 52 51 57 65 72 75 76 78 74 58 54 50 51 47 43 40 40 40 41 41 42 42 43 45 45 46 42
69 70 67 63 55 57 61 61 67 71 76 84 88 70 58 51 53 47 42 41 40 41 42 45 47 49 50 50 49 48 46 45
64 67 71 66 65 62 64 65 69 75 79 85 74 61 58 55 48 42 41 40 42 45 50 54 54 54 57 56 54 52 49 49
59 65 69 71 67 61 66 68 68 68 80 82 76 68 59 50 44 42 41 43 49 57 58 62 63 68 65 60 56 52 46 46
51 56 58 58 64 64 62 68 73 78 85 88 83 74 61 49 46 44 45 51 60 64 67 72 74 72 70 65 61 50 50 48
51 53 55 57 57 61 66 72 75 82 92 95 92 75 61 57 54 51 51 62 70 73 76 76 80 79 65 55 49 53 56 58
61 60 64 66 64 67 75 81 81 81 86 91 91 69 58 63 63 57 60 72 75 80 83 86 84 67 60 50 54 57 59 61
61 66 65 72 71 80 89 85 82 77 75 89 88 70 59 66 62 67 74 77 78 80 88 90 79 69 56 55 60 62 65 62
58 60 67 74 75 80 82 69 64 61 71 84 76 67 75 68 72 76 77 81 87 85 88 86 77 63 59 62 64 67 62 61

GFSFLT2_prec_cthk_078.txt.gz
RH
82 83 89 88 85 85 77 68 67 56 45 38 38 44 46 45 44 39 39 36 35 38 41 44 46 51 49 42 47 42 43 40
98 98 96 92 88 82 75 72 65 53 44 41 44 48 54 51 50 50 41 37 44 43 43 49 50 54 54 45 43 40 40 38
83 96 99 88 82 81 76 71 59 50 49 52 54 54 58 58 54 48 43 49 50 47 50 52 55 59 53 42 38 35 35 34
89 84 93 92 88 85 76 65 57 55 57 59 60 62 67 57 53 48 48 56 47 51 53 56 61 58 46 39 33 33 33 33
78 83 90 94 88 83 73 73 67 70 66 73 68 68 60 56 50 51 57 54 54 56 57 63 63 50 43 35 33 34 31 29
89 92 91 90 84 81 83 82 78 70 81 78 73 68 65 61 57 60 58 53 55 53 64 66 51 46 33 32 33 32 29 27
87 90 93 87 92 86 86 81 78 84 87 75 69 68 66 66 63 58 55 54 53 64 72 57 48 35 33 32 31 30 28 25
87 90 89 94 91 90 85 82 87 86 82 73 75 76 77 72 71 61 55 51 68 72 58 49 38 35 35 31 30 27 27 27
85 88 83 85 97 94 89 90 87 87 79 80 85 81 80 78 69 59 53 77 72 60 50 43 37 35 31 30 28 29 29 28
88 86 88 87 86 87 89 93 91 85 83 90 91 87 77 71 61 68 81 78 62 52 47 40 38 33 31 31 32 34 32 30
87 86 93 93 92 92 94 91 88 90 86 86 86 79 66 63 75 86 81 62 50 47 44 38 36 34 35 35 37 38 34 36
89 86 79 74 76 78 81 85 85 84 78 78 77 57 67 87 88 74 57 53 49 46 40 38 36 39 43 44 41 42 42 41
80 74 72 69 65 56 61 64 62 58 68 81 84 77 79 81 81 61 57 54 49 42 39 39 40 46 49 50 54 52 51 49
76 79 66 56 55 43 47 54 59 70 79 77 81 78 81 88 76 64 58 53 45 42 40 43 49 52 56 62 60 58 56 57
55 63 68 66 65 58 57 58 69 66 75 85 73 76 84 90 82 71 62 53 48 45 45 49 54 58 67 69 67 65 63 60
47 55 61 59 58 63 58 59 62 61 61 69 72 74 83 91 89 79 70 63 54 51 53 57 59 65 67 69 67 68 69 63
43 51 56 58 55 60 59 63 62 66 66 73 72 79 83 90 87 93 86 76 69 63 66 65 64 71 74 76 71 67 68 65
48 54 58 60 62 62 64 65 69 67 66 68 75 82 86 88 85 86 86 81 74 70 66 69 72 78 82 75 75 77 74 68
53 53 55 58 64 67 64 67 73 75 69 74 75 76 76 87 88 85 90 86 78 74 75 78 79 85 85 88 88 81 71 72
52 53 56 59 58 66 67 69 75 76 77 78 70 64 65 71 78 85 92 91 86 85 83 84 86 89 91 91 82 79 79 73

GFSFLT2_prec_cthk_081.txt.gz
RH
98 97 97 92 90 83 76 73 68 64 49 41 38 41 44 42 43 45 40 39 40 38 38 41 44 43 45 47 45 39 36 34
93 99 96 95 91 85 81 75 69 59 46 41 42 45 45 46 48 48 49 43 44 45 39 52 50 46 47 45 40 35 33 32
82 99 98 95 95 87 84 76 69 54 46 45 47 50 51 52 53 56 54 54 46 47 55 45 51 53 49 40 34 31 31 29
89 91 96 98 97 90 84 72 63 55 53 55 53 58 57 60 59 61 57 50 53 60 46 50 55 55 47 35 29 31 29 28
80 83 86 88 93 87 76 69 65 62 60 59 62 67 70 62 63 57 55 60 65 57 50 56 59 53 43 31 29 30 28 27
80 90 90 92 87 77 71 72 75 73 64 74 69 71 73 68 60 60 59 65 65 55 52 60 58 49 36 29 30 28 26 24
79 79 80 89 80 73 71 77 72 74 73 78 76 75 72 65 61 60 65 71 61 52 56 63 56 42 32 32 32 31 25 24
73 76 78 88 81 81 85 78 80 78 82 82 76 78 72 65 64 64 68 64 55 58 66 62 45 35 35 32 30 28 25 24
75 78 79 83 76 86 85 85 85 85 84 85 85 77 69 69 70 67 63 59 57 74 66 48 38 36 35 31 29 29 32 28
79 77 83 74 78 86 88 89 91 87 86 91 88 74 80 76 74 67 61 62 82 70 54 43 37 35 33 30 32 34 34 31
81 80 80 86 92 93 95 89 89 91 91 88 76 78 76 79 78 71 73 83 74 55 46 43 37 35 32 34 39 38 37 38
83 84 86 86 88 91 89 93 90 86 81 73 80 79 77 75 78 74 85 72 59 50 47 40 36 35 37 42 44 47 47 47
76 74 71 74 75 80 84 80 79 82 82 83 81 82 88 89 82 87 77 59 54 50 44 39 36 37 43 49 51 51 52 53
66 59 54 48 47 59 66 70 70 71 69 72 75 86 86 83 77 80 69 56 54 51 44 42 39 41 48 53 55 58 58 59
47 48 44 43 37 40 44 45 50 54 58 71 76 82 85 90 86 80 72 63 59 57 53 48 47 48 55 59 63 61 60 60
42 44 48 46 47 48 48 49 49 54 60 62 69 72 77 76 78 84 83 79 76 69 63 59 59 61 63 63 67 69 70 67
42 49 52 52 52 52 51 53 53 59 60 61 65 73 69 74 78 82 85 79 79 80 81 75 69 69 67 65 70 77 72 71
44 48 51 54 53 53 60 58 58 61 67 64 60 66 75 79 82 86 89 86 84 82 83 80 78 78 76 76 78 78 78 81
44 44 47 50 55 54 56 59 60 66 73 74 73 75 81 84 82 80 77 82 82 83 89 90 88 89 88 84 83 86 85 80
43 44 46 49 52 57 58 65 65 66 71 75 80 84 78 70 63 64 74 81 83 86 90 97 90 94 91 89 90 92 93 90

GFSFLT2_prec_cthk_084.txt.gz
RH
78 80 82 79 98 88 84 87 77 60 45 38 40 45 46 43 39 41 43 40 40 41 42 42 45 41 42 43 42 40 35 30
83 80 80 98 96 91 92 85 75 59 41 37 45 47 46 47 44 44 45 46 44 46 48 43 43 49 52 42 41 37 32 28
73 83 83 98 98 95 90 90 73 55 42 43 48 52 50 51 49 49 50 47 56 55 54 54 57 55 47 43 37 34 30 27
76 87 94 97 99 97 94 80 67 54 49 50 50 51 53 53 53 55 54 57 61 56 53 54 54 53 48 40 32 30 29 27
79 84 98 98 97 97 90 79 64 56 52 54 55 57 64 62 68 63 61 62 59 58 59 58 57 60 46 35 30 30 28 26
79 78 87 92 97 95 85 73 69 62 58 61 63 62 64 64 71 66 63 60 63 69 63 57 62 60 40 31 28 29 26 23
76 78 74 81 85 85 83 67 66 64 66 67 66 71 65 69 70 68 60 60 71 64 58 54 62 54 38 28 29 28 25 24
75 73 74 75 83 82 73 70 67 70 73 70 67 77 71 69 72 64 59 65 71 65 57 61 59 48 32 31 30 27 25 25
73 78 79 79 90 82 72 71 80 84 75 72 73 75 72 71 69 62 62 67 69 58 59 64 58 37 33 31 29 28 30 29
70 73 80 78 82 83 67 73 82 81 78 80 79 80 72 69 64 64 64 66 58 59 73 61 46 36 34 32 31 33 33 31
79 80 78 85 80 75 76 85 88 81 82 85 85 80 74 70 67 63 66 60 62 80 70 49 40 35 33 33 34 36 39 39
85 94 84 87 85 87 88 87 89 88 87 85 87 85 82 75 71 66 68 67 80 70 55 45 41 36 35 36 38 41 46 47
88 86 89 88 85 88 88 91 92 89 86 87 86 88 81 73 71 72 71 81 71 62 51 45 41 38 35 37 41 46 51 53
67 68 68 75 77 78 81 84 79 78 79 79 77 74 72 73 81 82 86 79 65 53 51 47 42 41 40 41 44 49 53 60
53 51 51 53 55 60 64 68 72 75 72 74 72 76 76 80 82 78 83 76 70 66 64 60 56 51 49 50 53 56 59 61
39 42 42 43 48 48 50 52 52 57 59 62 64 68 75 84 81 78 82 86 88 87 83 80 76 70 65 62 62 63 64 63
42 42 45 43 42 43 44 46 49 49 51 53 53 58 65 75 75 80 87 86 88 85 85 83 79 77 75 75 74 74 76 75
44 44 49 49 47 46 46 45 47 51 54 57 62 62 64 73 75 80 83 89 90 86 81 82 82 83 85 86 86 86 86 85
48 48 49 51 52 52 53 54 56 56 62 67 69 68 70 75 79 81 78 74 72 75 81 81 82 85 90 94 94 93 93 86
42 44 47 50 52 53 53 55 60 60 60 62 66 70 77 77 76 77 65 68 76 85 79 83 81 97 96 97 97 96 93 90

GFSFLT2_prec_cthk_087.txt.gz
RH
66 68 69 75 74 67 71 90 85 80 62 43 50 45 45 46 46 43 40 43 45 44 38 38 39 41 42 43 41 42 35 28
74 74 75 82 84 91 84 90 92 81 62 45 46 47 48 49 47 45 42 45 46 45 46 42 44 45 49 46 47 37 31 27
84 87 84 90 95 96 93 87 94 78 58 42 50 50 52 50 48 48 46 47 47 48 46 49 49 51 49 46 40 33 29 26
86 94 98 98 94 91 91 97 94 75 52 51 55 55 53 51 51 51 53 52 52 54 55 54 54 55 53 48 36 31 28 25
89 89 93 93 94 96 90 94 95 71 56 56 58 58 55 57 57 57 57 59 57 58 61 56 56 55 47 43 35 31 28 24
83 83 95 98 96 94 95 96 88 69 57 54 57 59 61 64 64 54 60 64 62 63 61 58 58 57 54 41 32 32 27 23
82 80 85 94 99 98 94 94 80 69 58 57 59 62 61 61 67 62 64 67 65 62 62 61 59 57 53 37 32 30 27 24
80 81 79 86 94 94 94 89 78 71 66 62 69 61 63 68 72 66 67 67 67 68 67 59 57 56 48 37 31 28 27 26
81 78 83 83 84 91 91 80 72 65 67 70 75 66 66 70 70 70 69 66 70 70 68 61 56 60 43 36 30 29 29 30
73 79 82 86 87 87 84 73 71 74 76 76 72 72 71 75 73 72 68 69 72 73 70 61 62 56 39 33 31 31 32 32
78 75 87 89 92 91 86 70 74 79 81 85 78 75 76 76 74 72 67 69 72 69 62 67 67 45 37 34 31 33 36 39
82 80 85 90 86 89 87 71 70 81 86 86 82 81 81 79 74 71 69 63 66 64 76 72 52 44 37 34 33 35 39 44
86 91 90 92 88 89 84 78 78 84 85 87 85 86 83 76 72 65 63 65 67 76 74 59 52 42 37 34 33 35 38 42
85 83 89 87 90 87 84 84 85 90 85 86 87 87 79 75 68 64 64 70 76 76 63 61 55 46 42 41 41 42 46 51
62 71 78 81 83 82 83 82 84 87 83 84 79 82 79 79 77 72 78 84 80 74 73 67 68 64 58 55 55 55 57 61
42 44 51 60 70 74 76 79 78 76 77 75 75 76 76 75 78 81 85 86 82 79 77 79 79 81 80 75 70 67 68 71
38 38 40 47 53 55 56 58 61 67 66 65 64 69 73 74 78 83 79 79 82 86 86 86 85 86 85 82 79 75 75 77
35 37 37 42 45 47 46 48 50 51 53 53 55 59 62 65 67 73 76 81 84 87 90 92 92 82 76 78 79 82 81 86
39 38 37 39 41 45 49 50 51 52 54 58 59 60 58 58 63 71 76 80 82 85 80 77 77 82 83 82 84 86 94 95
36 35 35 37 39 40 42 43 46 49 51 53 54 56 61 66 70 77 81 78 75 70 69 77 80 87 82 79 91 83 92 96